Air Resources Laboratory banner image
Air Resources Laboratory web site National Oceanic and Atmospheric Administration (NOAA)

in roundup


Office: IND

ASUS43 KIND 180000
RWRIN

WEATHER ROUNDUP FOR INDIANA
NATIONAL WEATHER SERVICE INDIANAPOLIS IN
800 PM EDT TUE JUL 17 2018

NOTE: "FAIR" INDICATES FEW OR NO CLOUDS BELOW 12,000 FEET WITH NO
SIGNIFICANT WEATHER AND/OR OBSTRUCTIONS TO VISIBILITY.

* - STATION DOES NOT REPORT WEATHER SUCH AS PRECIPITATION OR FOG.

+ - STATION NOT QUALITY CONTROLLED BY THE NATIONAL WEATHER SERVICE.
    USE DATA WITH CAUTION...ESPECIALLY DEWPOINT AND RELATIVE
    HUMIDITY OBSERVATIONS.

INZ001>003-010>013-019-020-180100-
NORTHWEST INDIANA

CITY           SKY/WX    TMP DP  RH WIND       PRES   REMARKS
GARY /AIRPORT/ MOSUNNY   75  54  46 NE14      30.08S
MICHIGAN CITY+ FAIR      72  54  53 N9        30.08R
MONTICELLO +   FAIR      77  57  50 N7        30.03S
6HR MIN TEMP:  77; 6HR MAX TEMP:  85;

RENSSELAER +   FAIR      75  48  38 N6        30.06S

$$

LMZ046-743>745-180100-
SOUTHERN LAKE MICHIGAN

STATION/POSITION TIME  TEMP    WIND        PRES    WAVE
                       AIR SEA DIR/SP/G            HT
                 (UTC) (F)     (DEG/KT/KT) (MB)    (FT)
BURNS HARBOR     2340   74      50/ 13/ 17 1018.6R
MICHIGAN CITY    2330   71      10/ 19/ 20   N/A
5NW MICH CITY    2350   72 74   40/ 16/ 19   N/A     5

$$

INZ004-005-014>016-021>024-180100-
NORTH CENTRAL INDIANA

CITY           SKY/WX    TMP DP  RH WIND       PRES   REMARKS
ELKHART        FAIR      73  50  43 N5        30.05S
GOSHEN         FAIR      74  55  51 N13       30.04S
6HR MIN TEMP:  74; 6HR MAX TEMP:  84;

PERU/GRISSOM   FAIR      78  56  46 N12       30.03R
6HR MIN TEMP:  78; 6HR MAX TEMP:  85;

SOUTH BEND     FAIR      72  50  45 N16G22    30.07R
6HR MIN TEMP:  72; 6HR MAX TEMP:  81;

WARSAW +       FAIR      75  50  41 N9        30.04S

$$

INZ006>009-017-018-025>027-180100-
NORTHEAST INDIANA

CITY           SKY/WX    TMP DP  RH WIND       PRES   REMARKS
ANGOLA *+      FAIR      75  54  46 NW7       30.02S
AUBURN +       FAIR      77  54  44 NW10G17   30.03S
FORT WAYNE     FAIR      79  56  45 NW12G20   30.02R
6HR MIN TEMP:  79; 6HR MAX TEMP:  85;

KENDALLVILLE + FAIR      76  44  31 N7        30.04S

$$

INZ028-029-035-036-043>045-051>053-180100-
WEST CENTRAL INDIANA

CITY           SKY/WX    TMP DP  RH WIND       PRES   REMARKS
CRAWFORDSVL +  FAIR      78  64  61 NW5       30.03S
6HR MIN TEMP:  78; 6HR MAX TEMP:  82;

GREENCASTLE +  FAIR      81  59  47 N7        30.04R
LAFAYETTE      FAIR      79  62  56 N10       30.02R
6HR MIN TEMP:  79; 6HR MAX TEMP:  86;

TERRE HAUTE    FAIR      82  62  50 N6        30.02S
6HR MIN TEMP:  82; 6HR MAX TEMP:  88;


$$

INZ030>032-037>040-046>048-054>057-064-065-180100-
CENTRAL INDIANA

CITY           SKY/WX    TMP DP  RH WIND       PRES   REMARKS
ANDERSON       FAIR      80  58  46 CALM      30.03S
COLUMBUS       MOSUNNY   81  57  44 N6        30.01R
GREENWOOD *+   FAIR      82  59  45 N10G16    30.02S
6HR MIN TEMP:  81; 6HR MAX TEMP:  86;

INDIANAPOLIS   PTSUNNY   82  56  40 N15       30.02R
6HR MIN TEMP:  82; 6HR MAX TEMP:  89;

-EAGLE CREEK   FAIR      83  60  45 N8        30.01S
6HR MIN TEMP:  83; 6HR MAX TEMP:  88;

KOKOMO +       FAIR      78  60  53 N10       30.04R
6HR MIN TEMP:  78; 6HR MAX TEMP:  85;

MT COMFORT *+  FAIR      79  68  69 N6        30.03S
SHELBYVILLE    FAIR      81  61  50 N9        30.01R
6HR MIN TEMP:  81; 6HR MAX TEMP:  86;


$$

INZ033-034-041-042-049-050-058-059-180100-
EAST CENTRAL INDIANA

CITY           SKY/WX    TMP DP  RH WIND       PRES   REMARKS
MUNCIE         FAIR      81  58  45 N10       30.02S
6HR MIN TEMP:  80; 6HR MAX TEMP:  88;

RICHMOND +     FAIR      77  59  53 N10G17    30.03R

$$

INZ060-061-067>069-081>083-085>088-180100-
SOUTHWEST INDIANA

CITY           SKY/WX    TMP DP  RH WIND       PRES   REMARKS
EVANSVILLE     FAIR      84  66  54 N7        30.00R
6HR MIN TEMP:  84; 6HR MAX TEMP:  90;

HUNTINGBURG +  FAIR      81  67  62 N3        30.00R
6HR MIN TEMP:  81; 6HR MAX TEMP:  87;


$$

INZ062-063-066-070>080-084-089>092-180100-
SOUTH CENTRAL AND SOUTHEAST INDIANA

CITY           SKY/WX    TMP DP  RH WIND       PRES   REMARKS
BATESVILLE +   SUNNY     79  64  61 CALM      30.01S
BLOOMINGTON    FAIR      83  62  49 N8        30.02R
6HR MIN TEMP:  81; 6HR MAX TEMP:  87;

FRENCH LICK *+ FAIR      81  48  32 N3        30.01R
SEYMOUR +      FAIR      84  57  39 NE8       29.99R

$$



ASUS43 KIND 180009
RWRIN

WEATHER ROUNDUP FOR INDIANA
NATIONAL WEATHER SERVICE INDIANAPOLIS IN
800 PM EDT TUE JUL 17 2018

NOTE: "FAIR" INDICATES FEW OR NO CLOUDS BELOW 12,000 FEET WITH NO
SIGNIFICANT WEATHER AND/OR OBSTRUCTIONS TO VISIBILITY.

* - STATION DOES NOT REPORT WEATHER SUCH AS PRECIPITATION OR FOG.

+ - STATION NOT QUALITY CONTROLLED BY THE NATIONAL WEATHER SERVICE.
    USE DATA WITH CAUTION...ESPECIALLY DEWPOINT AND RELATIVE
    HUMIDITY OBSERVATIONS.

INZ001>003-010>013-019-020-180100-
NORTHWEST INDIANA

CITY           SKY/WX    TMP DP  RH WIND       PRES   REMARKS
GARY /AIRPORT/ MOSUNNY   75  54  46 NE14      30.08S
KNOX *+        FAIR      73  50  43 N9        30.05S
LA PORTE +     FAIR      73  53  48 N10       30.08R
6HR MIN TEMP:  73; 6HR MAX TEMP:  80;

MICHIGAN CITY+ FAIR      72  54  53 N9        30.08R
MONTICELLO +   FAIR      77  57  50 N7        30.03S
6HR MIN TEMP:  77; 6HR MAX TEMP:  85;

RENSSELAER +   FAIR      75  48  38 N6        30.06S
VALPARAISO     FAIR      76  52  43 NE7       30.07S
6HR MIN TEMP:  76; 6HR MAX TEMP:  83;


$$

LMZ046-743>745-180100-
SOUTHERN LAKE MICHIGAN

STATION/POSITION TIME  TEMP    WIND        PRES    WAVE
                       AIR SEA DIR/SP/G            HT
                 (UTC) (F)     (DEG/KT/KT) (MB)    (FT)
BURNS HARBOR     0003   73      40/ 14/ 18 1018.6
MICHIGAN CITY    2340   71      20/ 19/ 22   N/A
5NW MICH CITY    0000   72 74   40/ 14/ 19   N/A     5

$$

INZ004-005-014>016-021>024-180100-
NORTH CENTRAL INDIANA

CITY           SKY/WX    TMP DP  RH WIND       PRES   REMARKS
ELKHART        FAIR      73  50  43 N5        30.05S
GOSHEN         FAIR      74  55  51 N13       30.04S
6HR MIN TEMP:  74; 6HR MAX TEMP:  84;

LOGANSPORT +   CLOUDY    75  54  46 N9        30.05S
PERU/GRISSOM   FAIR      78  56  46 N12       30.03R
6HR MIN TEMP:  78; 6HR MAX TEMP:  85;

ROCHESTER +    FAIR      79  50  36 N12       30.05S
SOUTH BEND     FAIR      72  50  45 N16G22    30.07R
6HR MIN TEMP:  72; 6HR MAX TEMP:  81;

WARSAW +       FAIR      75  50  41 N9        30.04S

$$

INZ006>009-017-018-025>027-180100-
NORTHEAST INDIANA

CITY           SKY/WX    TMP DP  RH WIND       PRES   REMARKS
ANGOLA *+      FAIR      75  54  46 NW7       30.02S
AUBURN +       FAIR      77  54  44 NW10G17   30.03S
FORT WAYNE     FAIR      79  56  45 NW12G20   30.02R
6HR MIN TEMP:  79; 6HR MAX TEMP:  85;

HUNTINGTON +   FAIR      77  53  42 NW9       30.02S
6HR MIN TEMP:  77; 6HR MAX TEMP:  83;

KENDALLVILLE + FAIR      76  44  31 N7        30.04S

$$

INZ028-029-035-036-043>045-051>053-180100-
WEST CENTRAL INDIANA

CITY           SKY/WX    TMP DP  RH WIND       PRES   REMARKS
CRAWFORDSVL +  FAIR      78  64  61 NW5       30.03S
6HR MIN TEMP:  78; 6HR MAX TEMP:  82;

GREENCASTLE +  FAIR      81  59  47 N7        30.04R
LAFAYETTE      FAIR      79  62  56 N10       30.02R
6HR MIN TEMP:  79; 6HR MAX TEMP:  86;

TERRE HAUTE    FAIR      82  62  50 N6        30.02S
6HR MIN TEMP:  82; 6HR MAX TEMP:  88;


$$

INZ030>032-037>040-046>048-054>057-064-065-180100-
CENTRAL INDIANA

CITY           SKY/WX    TMP DP  RH WIND       PRES   REMARKS
ANDERSON       FAIR      80  58  46 CALM      30.03S
COLUMBUS       MOSUNNY   81  57  44 N6        30.01R
FRANKFORT +    PTSUNNY   82  63  52 N10       30.05S
6HR MIN TEMP:  81; 6HR MAX TEMP:  86;

GREENWOOD *+   FAIR      82  59  45 N10G16    30.02S
6HR MIN TEMP:  81; 6HR MAX TEMP:  86;

INDIANAPOLIS   PTSUNNY   82  56  40 N15       30.02R
6HR MIN TEMP:  82; 6HR MAX TEMP:  89;

-EAGLE CREEK   FAIR      83  60  45 N8        30.01S
6HR MIN TEMP:  83; 6HR MAX TEMP:  88;

KOKOMO +       FAIR      78  60  53 N10       30.04R
6HR MIN TEMP:  78; 6HR MAX TEMP:  85;

MARION +       FAIR      76  58  52 N3        30.04R
MT COMFORT *+  FAIR      79  68  69 N6        30.03S
SHELBYVILLE    FAIR      81  61  50 N9        30.01R
6HR MIN TEMP:  81; 6HR MAX TEMP:  86;

ZIONSVILLE +   FAIR      74  65  74 N5        30.04R
6HR MIN TEMP:  74; 6HR MAX TEMP:  82;


$$

INZ033-034-041-042-049-050-058-059-180100-
EAST CENTRAL INDIANA

CITY           SKY/WX    TMP DP  RH WIND       PRES   REMARKS
MUNCIE         FAIR      81  58  45 N10       30.02S
6HR MIN TEMP:  80; 6HR MAX TEMP:  88;

RICHMOND +     FAIR      77  59  53 N10G17    30.03R

$$

INZ060-061-067>069-081>083-085>088-180100-
SOUTHWEST INDIANA

CITY           SKY/WX    TMP DP  RH WIND       PRES   REMARKS
EVANSVILLE     FAIR      84  66  54 N7        30.00R
6HR MIN TEMP:  84; 6HR MAX TEMP:  90;

HUNTINGBURG +  FAIR      81  67  62 N3        30.00R
6HR MIN TEMP:  81; 6HR MAX TEMP:  87;

WASHINGTON +   FAIR      81  57  43 N6        29.99S
6HR MIN TEMP:  81; 6HR MAX TEMP:  87;


$$

INZ062-063-066-070>080-084-089>092-180100-
SOUTH CENTRAL AND SOUTHEAST INDIANA

CITY           SKY/WX    TMP DP  RH WIND       PRES   REMARKS
BATESVILLE +   SUNNY     79  64  61 CALM      30.01S
BLOOMINGTON    FAIR      83  62  49 N8        30.02R
6HR MIN TEMP:  81; 6HR MAX TEMP:  87;

FRENCH LICK *+ FAIR      81  48  32 N3        30.01R
MADISON *+     FAIR      81  54  39 N3        30.03R
NORTH VERNON + FAIR      77  61  57 CALM      30.00R
SEYMOUR +      FAIR      84  57  39 NE8       29.99R

$$



ASUS63 KIND 180017
RTPIND


Max/Min Temperature and Precipitation Table for Central Indiana
National Weather Service Indianapolis IN
817 PM EDT Tue Jul 17 2018

Values represent high and low temperatures over the last 18 hours,
24-hour precipitation ending at 7:00 p.m. EST/8:00 p.m. EDT, and snow
depth at 7:00 p.m. EST/8:00 p.m. EDT.


.BR IND 0717 ES DH19/TAIRZS/TAIRZI/PPDRZZ/SFDRZZ/SDIRZZ
:
:Central Indiana -- Temperature and Precipitation Stations
:................................................................
:         Station           Max / Min / 24-Hr / Snow/ Snow
:          Name             Temp/ Temp/ Precip/ Fall/ Depth
:................................................................
:
:
IND   : Indianapolis      :  89 /  72 /    T  / 0.0 /   0
:
:Automated Surface Observation Stations/Unofficial Data
BMG   : Bloomington       :  87 /  71 /  1.04 /   M /   M
EYE   : Eagle Creek Arpt  :  88 /  70 /  0.04 /   M /   M
LAF   : Lafayette         :  86 /  64 /  0.00 /   M /   M
MIE   : Muncie            :  88 /  64 /  0.00 /   M /   M
GEZ   : Shelbyville       :  86 /  69 /    T  /   M /   M
HUF   : Terre Haute       :  88 /  68 /  0.00 /   M /   M
:
:U.S. Climate Reference Network/Non-Commissioned Site/Unofficial Data
FPCI3 : Oolitic 2.6 WSW   :  85 /  71 /  0.00 /   M /   M
:
.END


These data are preliminary and have not undergone final quality
control by NCEI. Therefore, these data are subject to revision. Final
and certified climate data can be accessed at the National Centers
for Environmental Information /NCEI/ - www.ncdc.noaa.gov.


$$


ASUS63 KIND 180045
RTPIN


Max/Min Temperature and Precipitation Table for Indiana
National Weather Service Indianapolis IN
845 PM EDT Tue Jul 17 2018

Values represent high and low temperatures over the last 18 hours,
24-hour precipitation ending at 7:00 p.m. EST/8:00 p.m. EDT, and snow
depth at 7:00 p.m. EST/8:00 p.m. EDT.


.BR IND 0717 ES DH19/TAIRZS/TAIRZI/PPDRZZ/SFDRZZ/SDIRZZ
:
:Indiana Temperature and Precipitation Stations
:................................................................
:      Station             Max / Min / 24-Hr / Snow / Snow
:       Name               Temp/ Temp/ Precip/ Fall / Depth
:................................................................
:
:
EVV  :  Evansville        :  90 /  74 /    T  /    M /   M
FWA  :  Fort Wayne        :  85 /  63 /  0.00 /    M /   M
IND  :  Indianapolis      :  89 /  72 /    T  /  0.0 /   0
SBN  :  South Bend        :  82 /  63 /  0.00 /    M /   M
:
:Automated Surface Observation Stations/Unofficial Data
BMG  :  Bloomington       :  87 /  71 /  1.04 /    M /   M
EYE  :  Eagle Creek Arpt  :  88 /  70 /  0.04 /    M /   M
GSH  :  Goshen Airport    :  84 /  62 /  0.00 /    M /   M
LAF  :  Lafayette         :  86 /  64 /  0.00 /    M /   M
MIE  :  Muncie            :  88 /  64 /  0.00 /    M /   M
IWX  :  Northern Indiana  :  84 /  63 /  0.00 /    M /   M
GEZ  :  Shelbyville       :  86 /  69 /    T  /    M /   M
HUF  :  Terre Haute       :  88 /  68 /  0.00 /    M /   M
VPZ  :  Valparaiso        :  84 /  68 /  0.00 /    M /   M
:
:U.S. Climate Reference Network/Non-Commissioned Site/Unofficial Data
FPCI3:  Oolitic 2.6 WSW   :  85 /  71 /  0.00 /    M /   M
:
:Unavailable parameters are indicated by M.
.END


These data are preliminary and have not undergone final quality
control by NCEI. Therefore, these data are subject to revision. Final
and certified climate data can be accessed at the National Centers
for Environmental Information /NCEI/ - www.ncdc.noaa.gov.


$$